Tracking 20083 objects as of 8-Dec-2019
HD Live streaming from Space Station
objects crossing your sky now

FENGYUN 1C DEB

Track FENGYUN 1C DEB now!
10-day predictions


NORAD ID: 30338
Int'l Code: 1999-025AAZ
Perigee: 564.4 km
Apogee: 1,060.9 km
Inclination: 98.7 °
Period: 101.0 minutes
Semi major axis: 7183 km
RCS: 0.0507 m2 (small)
Launch date: May 10, 1999
Source: People's Republic of China (PRC)
Launch site: Taiyaun Space Center, China (TSC)

Note: This is SATELLITE DEBRIS
aabbcc
Your satellite tracking list
Your tracking list is empty




NASA's NSSDC Master Catalog

Two Line Element Set (TLE):
1 30338U 99025AAZ 19341.74550862 +.00000328 +00000-0 +86688-4 0  9990
2 30338 098.7224 037.0182 0345596 206.2209 278.6267 14.25897464666999
Source of the keplerian elements: AFSPC